Weather History for Fulton, NY

Change the Weather History Date:

Sunday, November 17, 2013

  Actual Average (KSYR) Record (KSYR)
Temperature  
Mean Temperature 54 °F 40 °F  
Max Temperature 60 °F 48 °F 71 °F (1931)
Min Temperature 48 °F 33 °F 12 °F (1924)
Degree Days  
Heating Degree Days 12 25  
Month to date heating degree days 375  
Since 1 July heating degree days 992  
Cooling Degree Days 0 0  
Month to date cooling degree days 0  
Year to date cooling degree days 569  
Growing Degree Days 4 (Base 50)    
Moisture  
Dew Point 48 °F    
Average Humidity 80    
Maximum Humidity 90    
Minimum Humidity 64    
Precipitation  
Precipitation 0.27 in 0.12 in 1.19 in (1927)
Month to date precipitation 1.99  
Year to date precipitation 33.71  
Snow  
Snow 0.00 in 0.30 in 3.80 in (1962)
Month to date snowfall 3.3  
Since 1 July snowfall 3.7  
Since 1 September snowfall 3.7  
Snow Depth -    
Sea Level Pressure  
Sea Level Pressure 29.83 in    
Wind  
Wind Speed 7 mph (SE)    
Max Wind Speed 16 mph    
Max Gust Speed 32 mph    
Visibility 9 miles    
Events Rain    
T = Trace of Precipitation, MM = Missing Value Source: NWS Daily Summary

Daily Weather History Graph

Daily Weather History Graph

Search for Another Location

Airport:

Trip Planner

Search our weather history database for the weather conditions in past years. The results will help you decide how hot, cold, wet, or windy it might be!

Date:

Astronomy

Nov. 17, 2013 Rise Set
Actual Time 7:01 AM EST 4:39 PM EST
Civil Twilight 6:30 AM EST 5:09 PM EST
Nautical Twilight 5:55 AM EST 5:44 PM EST
Astronomical Twilight 5:22 AM EST 6:18 PM EST
Moon 4:54 PM EST (11/17) 6:53 AM EST (11/17)
Length of Visible Light 10h 39m
Length of Day
9h 37m
Full, 100% of the Moon is Illuminated
Nov 17
Full
Nov 25
Last Quarter
Dec 2
New
Dec 9
First Quarter
Dec 17
Full

Hourly Weather History & Observations

Time (EST) Temp. Dew Point Humidity Pressure Visibility Wind Dir Wind Speed Gust Speed Precip Events Conditions
12:54 AM 48.9 °F 37.0 °F 64% 30.09 in 10.0 mi ESE 8.1 mph - N/A   Clear
1:54 AM 48.9 °F 37.9 °F 66% 30.09 in 10.0 mi SE 5.8 mph - N/A   Clear
2:54 AM 48.9 °F 39.9 °F 71% 30.07 in 10.0 mi SE 6.9 mph - N/A   Mostly Cloudy
3:54 AM 48.9 °F 39.9 °F 71% 30.06 in 10.0 mi SE 6.9 mph - N/A   Clear
4:54 AM 48.9 °F 41.0 °F 74% 30.03 in 10.0 mi SE 5.8 mph - N/A   Clear
5:54 AM 50.0 °F 43.0 °F 77% 30.00 in 10.0 mi SE 6.9 mph - N/A   Mostly Cloudy
6:30 AM 51.8 °F 44.6 °F 76% 30.00 in 10.0 mi SE 6.9 mph - N/A   Overcast
6:54 AM 52.0 °F 45.0 °F 77% 30.00 in 10.0 mi SE 4.6 mph - N/A   Scattered Clouds
7:54 AM 54.0 °F 46.0 °F 75% 29.99 in 10.0 mi SE 5.8 mph - N/A   Mostly Cloudy
8:54 AM 55.0 °F 46.9 °F 74% 30.00 in 10.0 mi SE 5.8 mph - 0.00 in   Overcast
9:15 AM 55.4 °F 46.4 °F 72% 29.99 in 10.0 mi Variable 5.8 mph - 0.00 in Rain Light Rain
9:43 AM 53.6 °F 48.2 °F 82% 29.99 in 3.0 mi Variable 5.8 mph - 0.04 in Rain Rain
9:54 AM 54.0 °F 50.0 °F 86% 29.99 in 4.0 mi Variable 6.9 mph - 0.07 in Rain Rain
10:54 AM 54.0 °F 51.1 °F 90% 29.96 in 6.0 mi SE 9.2 mph - 0.05 in Rain Light Rain
11:54 AM 55.0 °F 51.1 °F 86% 29.92 in 10.0 mi SE 6.9 mph - 0.02 in   Overcast
12:54 PM 55.9 °F 52.0 °F 87% 29.89 in 8.0 mi SE 5.8 mph - 0.00 in Rain Light Rain
1:54 PM 55.9 °F 52.0 °F 87% 29.87 in 10.0 mi SE 6.9 mph - 0.01 in   Overcast
2:54 PM 57.0 °F 52.0 °F 83% 29.84 in 10.0 mi Variable 5.8 mph - 0.00 in   Overcast
3:54 PM 57.9 °F 51.1 °F 78% 29.81 in 10.0 mi Variable 5.8 mph - N/A   Mostly Cloudy
4:54 PM 57.0 °F 51.1 °F 81% 29.78 in 10.0 mi SSE 10.4 mph 23.0 mph 0.00 in   Overcast
5:54 PM 57.0 °F 51.1 °F 81% 29.75 in 10.0 mi SE 6.9 mph - 0.01 in Rain Light Rain
6:54 PM 55.9 °F 52.0 °F 87% 29.71 in 7.0 mi SE 6.9 mph - 0.02 in Rain Light Rain
7:54 PM 57.0 °F 52.0 °F 83% 29.65 in 10.0 mi SE 9.2 mph 17.3 mph 0.03 in   Overcast
8:09 PM 57.2 °F 51.8 °F 82% 29.64 in 10.0 mi Variable 6.9 mph 19.6 mph N/A   Overcast
8:54 PM 57.9 °F 52.0 °F 81% 29.62 in 10.0 mi SE 6.9 mph - N/A   Mostly Cloudy
9:18 PM 57.2 °F 51.8 °F 82% 29.58 in 10.0 mi SE 8.1 mph - N/A   Overcast
9:54 PM 59.0 °F 52.0 °F 78% 29.53 in 10.0 mi SSE 11.5 mph 20.7 mph N/A   Overcast
10:20 PM 57.2 °F 53.6 °F 88% 29.51 in 6.0 mi SE 9.2 mph - 0.02 in Rain Light Rain
10:32 PM 57.2 °F 53.6 °F 88% 29.49 in 10.0 mi SE 6.9 mph - 0.02 in Rain Light Rain
10:54 PM 59.0 °F 53.1 °F 81% 29.48 in 9.0 mi SSE 10.4 mph 21.9 mph 0.02 in Rain Light Rain
11:54 PM 60.1 °F 53.1 °F 78% 29.43 in 8.0 mi South 16.1 mph 32.2 mph 0.04 in Rain Light Rain